{"data":{"norad_id":47306,"epoch":"2026-09-19T20:32:23.286048Z","epoch_age_seconds":77588,"freshness":"FRESH","line1":"1 47306U 21001A   26262.85582507  .00000150  00000+0  00000+0 0  9996","line2":"2 47306   0.0157 129.5812 0000326 301.1992 267.0183  1.00272025 20917","mean_motion":1.00272025,"eccentricity":3.26e-5,"inclination_deg":0.0157,"raan_deg":129.5812,"arg_perigee_deg":301.1992,"mean_anomaly_deg":267.0183,"bstar":0,"rev_number":2091,"period_min":1436.0934667471,"perigee_km":35785.153112544,"apogee_km":35787.902248681,"semimajor_km":42164.664680613,"source":"CELESTRAK","updated_at":"2026-09-20T09:00:35.296999Z"}}